Regional Weather Roundup
Issued by NWS

Home | Current Version | Previous Version | Graphics & Text | Print | Product List | Glossary On
Versions: 1 2 3 4 5 6 7 8 9 10 11 12 13 14 15 16 17 18 19 20 21 22 23 24 25 26 27 28 29 30 31 32 33 34 35 36 37 38 39 40 41 42 43 44 45 46 47 48 49 50
000
ASUS43 KDTX 220201
RWRMI
MICHIGAN HOURLY REGIONAL WEATHER ROUNDUP
NATIONAL WEATHER SERVICE DETROIT/PONTIAC MI
1000 PM EDT MON AUG 21 2017

NOTE: "FAIR" INDICATES FEW OR NO CLOUDS BELOW 12,000 FEET WITH NO
SIGNIFICANT WEATHER AND/OR OBSTRUCTION TO VISIBILITY.

MIZ047>049-052>055-059>063-066>070-074>076-081>083-220300-
SOUTHEAST LOWER MICHIGAN

CITY           SKY/WX    TMP DP  RH WIND       PRES   REMARKS
ADRIAN         MOCLDY    75  69  81 W3        30.02S
ALMA           CLOUDY    77  69  76 SW12G18   29.96S
ANN ARBOR      CLOUDY    77  69  76 S7        30.00S
BAD AXE        CLOUDY    76  64  67 S10       29.95F
CARO           CLOUDY    76  68  75 SE3       29.94F
DETROIT CITY   PTCLDY    79  73  82 S6        29.99S
DETROIT        MOCLDY    80  71  74 SW9       30.00S
FLINT          CLOUDY    78  69  73 S8        29.97S
GROSSE ILE     MOCLDY    79  75  86 S6        29.99R
HILLSDALE      CLOUDY    75  68  78 SW7       30.02S
HOWELL         CLOUDY    78  69  73 SW8       30.00R

CITY           SKY/WX    TMP DP  RH WIND       PRES   REMARKS
JACKSON        MOCLDY    78  68  71 SW8       30.01S
LAMBERTVILLE   PTCLDY    80  70  73 SW5       30.00S
LANSING        LGT RAIN  76  68  76 SW15      30.00R
LAPEER         FAIR      75  67  74 S5        29.97F
MASON          CLOUDY    80  69  69 W8        30.02R
MONROE         CLOUDY    79  70  75 CALM      29.99S
MT. CLEMENS    MOCLDY    76  73  91 S12       29.97F
PONTIAC        CLOUDY    80  69  69 S8        29.98S
PORT HOPE        N/A     76  65  68 S7        29.92F
PORT HURON     CLOUDY    77  68  73 SE5       29.98F
TRI CITIES     CLOUDY    79  72  79 S8        29.95F
MIDLAND        FAIR      78  70  76 SW5       29.93S
TROY           MOCLDY    82  69  64 S6        30.00F
SAGINAW HB     CLOUDY    77  70  78 SW6       29.94F
$$
MIZ043>046-050>051-056>058-064>065-071>073-077>080-220300-
SOUTHWEST LOWER MICHIGAN

CITY           SKY/WX    TMP DP  RH WIND       PRES   REMARKS
BATTLE CREEK   TSTM      71  70  96 N17G24    30.05R
BENTON HARBOR  CLOUDY    78  71  79 SE5       29.97F
BIG RAPIDS     CLOUDY    74  69  84 SW8       29.94F
COLDWATER      MOCLDY    77  69  75 S6        30.00F
FREMONT        FAIR      72  72  98 S6        29.95F
HOLLAND        CLOUDY    71  68  90 SE8       29.97F
GRAND RAPIDS   CLOUDY    74  68  81 S14G22    29.99R
IONIA          FAIR      75  66  71 SW14G22   29.98S
KALAMAZOO      HVY RAIN  72  66  81 N8        30.02R
LUDINGTON      MOCLDY    72  69  90 S8        29.91F
MARSHALL       CLOUDY    77  68  74 NW5       30.03R
MOUNT PLEASANT MOCLDY    79  70  73 S7        29.93F
MUSKEGON       CLOUDY    76  68  76 S13       29.94F
SOUTH HAVEN    CLOUDY    74  73  94 E3        29.97F FOG
$$
MIZ016>042-220300-
NORTHERN LOWER MICHIGAN

CITY           SKY/WX    TMP DP  RH WIND       PRES   REMARKS
ALPENA         CLOUDY    74  70  87 S6        29.89F
BEAVER ISLAND  CLOUDY    70  66  88 CALM      29.89R
BELLAIRE       CLOUDY    70  67  92 CALM      29.89F
CADILLAC       MOCLDY    75  70  86 SW13      29.94F
CHARLEVOIX     CLOUDY    71  71 100 CALM      29.92F
FRANKFORT      PTCLDY    72  72 100 S12       29.90F
GAYLORD        CLOUDY    71  67  87 W7        29.92R
GRAYLING       CLOUDY    75  67  76 S3        29.92F
HARBOR SPRINGS CLOUDY    67  66  96 CALM      29.90F
HOUGHTON LAKE  CLOUDY    75  68  78 S6        29.93F
MANISTEE       PTCLDY    71  69  93 S8        29.91
OSCODA         CLOUDY    76  67  75 S10       29.90F
PELLSTON       LGT RAIN  67  66  97 SE3       29.89F
ROGERS CITY    CLOUDY    72  70  94 S3        29.89F
TRAVERSE CITY  PTCLDY    77  70  79 SW6       29.88S
$$
MIZ007>008-015-220300-
EASTERN UPPER MICHIGAN

CITY           SKY/WX    TMP DP  RH WIND       PRES   REMARKS
KINROSS        MOCLDY    69  67  93 SE6       29.88F
MACKINAC ISLAN HVY RAIN  69  65  89 SE9       29.90R
NEWBERRY       CLOUDY    67  66  97 CALM      29.87F
S. S. MARIE    CLOUDY    72  66  81 S6        29.87F
MUNISING         N/A     65  65 100 NW14G20   29.88R
$$
MIZ004>006-011>014-085-220300-
CENTRAL UPPER MICHIGAN

CITY           SKY/WX    TMP DP  RH WIND       PRES   REMARKS
MANISTIQUE     CLOUDY    67  62  82 S5        29.86F HAZE
ESCANABA       CLOUDY    70  69  97 E7        29.84F FOG
MENOMINEE      PTCLDY    74  69  85 S8        29.84F
SAWYER-GWINN   MOCLDY    63  63 100 S6        29.86F
$$
MIZ001>003-009>011-084-220300-
WESTERN UPPER MICHIGAN

CITY           SKY/WX    TMP DP  RH WIND       PRES   REMARKS
IRON MOUNTAIN  CLOUDY    67  64  90 NE3       29.83F
HOUGHTON       LGT RAIN  60  55  83 E8        29.85F
COPPER HARBOR    N/A     62  57  83 SW5       29.85F
IRONWOOD       CLOUDY    67  62  84 S3        29.83F
$$

ABBREVIATIONS USED IN REMARKS
   TC - TEMPERATURE IN CELSIUS
  WCI - WIND CHILL INDEX
   HX - HEAT INDEX
  VSB - VISIBILITY





USA.gov is the U.S. government's official web portal to all federal, state and local government web resources and services.